User: anonymous   Login
Location: Unspecified
(0.0000°N, 0.0000°E)
Time: 09:12:55
(UTC+00:00)
Language:

JASON - Orbit

View from above orbital plane
View from above orbital plane
View from above satellite
View from above satellite

Ground track
Ground track

The orbit data is extracted from the following two-line orbital elements,

1 26997U 01055A   18019.22562074 -.00000053  00000-0  34869-4 0  9994
2 26997  66.0406   8.5072 0009291 273.9304 150.5761 12.83995918754598
Epoch (UTC): 19 January 2018 05:24:53
Eccentricity: 0.0009291
inclination: 66.0406°
perigee height: 1318 km
apogee height: 1332 km
right ascension of ascending node: 8.5072°
argument of perigee: 273.9304°
revolutions per day: 12.83995918
mean anomaly at epoch: 150.5761°
orbit number at epoch: 75459

The dashed part of the orbit path shows where the satellite is in the earth's shadow,  

DLR